Main page
METAR-TAF:

METAR-TAF

Airports :

Brownwood Regional Airport

Brownwood, Texas, United States

latitude: 31-48N, longitude: 098-57W, elevation: 1384 ft

Current weather observation

The report was made 31 minutes ago, at 14:55 UTC
Calm wind
Temperature 55°F
Humidity 77%
Pressure 30.22 in. Hg
Visibility: 10 miles
Clear sky

METAR: KBWD 221455Z AUTO 00000KT 10SM CLR 13/09 A3022 RMK AO2 PWINO PNO

Time: 10:26 (15:26 UTC)


TAF: missing

Weather observations and forecasts of more than 4000 airports (METAR and TAF reports).

The available stations are represented by yellow and red dots on the map.

Hover mouse over dot to see the name of the station.

Then click to see weather observations and forecasts.

To change the map : click on the green buttons with a black cross to zoom in, on the green button with a dash to zoom out, or on the green arrows for adjacent maps.


METAR-TAF: